DW7854 Weather Reports


time (UTC)temp
F
wind
direction
speed
knots
gust
knots
rain 1hr
in
rain 24hr
in
rain mn
in
humidity
%
barometer
mb
20260504185330 79 170 7.0 13.0 0.00 0.00 0.00 52 1010.7
20260504184603 78 153 7.8 13.0 0.00 0.00 0.00 48 1011.0
20260504184430 79 170 7.0 13.0 0.00 0.00 0.00 48 1011.0
20260504183530 79 174 7.0 14.8 0.00 0.00 0.00 49 1011.1
20260504183009 78 173 9.6 16.5 0.00 0.00 0.00 49 1011.3
20260504182630 79 174 6.1 13.0 0.00 0.00 0.00 51 1011.2
20260504181730 78 179 7.0 13.9 0.00 0.00 0.00 48 1011.4
20260504181504 78 162 7.8 13.9 0.00 0.00 0.00 48 1011.6
20260504180830 78 175 7.8 16.5 0.00 0.00 0.00 49 1011.5
20260504180006 78 169 8.7 15.6 0.00 0.00 0.00 50 1011.7
20260504175930 78 174 7.8 14.8 0.00 0.00 0.00 49 1011.5
20260504175030 78 179 6.1 12.2 0.00 0.00 0.00 50 1011.7
20260504174504 77 191 3.5 13.0 0.00 0.00 0.00 50 1012.1
20260504174130 78 176 7.0 12.2 0.00 0.00 0.00 48 1011.8
20260504173230 78 188 5.2 10.4 0.00 0.00 0.00 50 1012.0
20260504173007 77 213 5.2 12.2 0.00 0.00 0.00 48 1012.3
20260504172330 78 170 7.0 15.6 0.00 0.00 0.00 50 1012.1
20260504171510 77 167 5.2 13.9 0.00 0.00 0.00 52 1012.4
20260504171430 77 179 6.1 13.9 0.00 0.00 0.00 53 1012.2
20260504170530 77 175 8.7 16.5 0.00 0.00 0.00 51 1012.2
20260504170106 76 193 8.7 17.4 0.00 0.00 0.00 51 1012.3
20260504160230 75 182 4.3 11.3 0.00 0.00 0.00 53 1013.0
20260504160107 74 219 3.5 11.3 0.00 0.00 0.00 59 1013.1
20260504150830 72 186 4.3 12.2 0.00 0.00 0.00 57 1013.1
20260504150105 71 159 4.3 10.4 0.00 0.00 0.00 59 1013.2
20260504140530 67 177 4.3 8.7 0.00 0.00 0.00 69 1013.1
20260504130230 58 172 0.9 2.6 0.00 0.00 0.00 88 1013.2
20260504120104 54 311 0.0 1.7 0.00 0.00 0.00 88 1013.2
20260504110530 54 0 0.0 0.0 0.00 0.00 0.00 88 1012.3
20260504100230 54 0 0.0 0.0 0.00 0.00 0.00 88 1012.5
20260504090105 54 183 0.0 0.0 0.00 0.00 0.00 88 1012.9
20260504081604 55 183 0.0 0.0 0.00 0.00 0.00 86 1013.0
20260504081430 55 0 0.0 0.0 0.00 0.00 0.00 86 1012.8
20260504080530 56 0 0.0 0.0 0.00 0.00 0.00 85 1012.9
20260504070230 57 0 0.0 0.0 0.00 0.00 0.00 83 1013.7
20260504050530 59 0 0.0 0.0 0.00 0.00 0.00 81 1014.5
20260504050011 58 183 0.0 0.0 0.00 0.00 0.00 81 1014.6
20260504045630 59 0 0.0 0.0 0.00 0.00 0.00 81 1014.4
20260504044603 59 183 0.0 1.7 0.00 0.00 0.00 80 1014.6
20260504043003 59 183 0.0 1.7 0.00 0.00 0.00 79 1014.7
20260504042930 60 184 0.9 1.7 0.00 0.00 0.00 79 1014.4
20260504042030 60 184 0.9 1.7 0.00 0.00 0.00 79 1014.5
20260504041505 60 183 0.9 1.7 0.00 0.00 0.00 78 1014.8
20260504041130 61 184 0.0 0.9 0.00 0.00 0.00 77 1014.6
20260504040230 61 0 0.0 0.0 0.00 0.00 0.00 76 1014.6
20260504040103 61 183 0.0 0.0 0.00 0.00 0.00 76 1014.9
20260504035330 62 0 0.0 0.0 0.00 0.00 0.00 75 1014.6
20260504034503 61 183 0.0 0.0 0.00 0.00 0.00 75 1014.8
20260504034430 62 0 0.0 0.0 0.00 0.00 0.00 75 1014.6
20260504033530 62 0 0.0 0.0 0.00 0.00 0.00 75 1014.5
20260504033003 62 183 0.0 0.0 0.00 0.00 0.00 75 1014.8
20260504032629 62 0 0.0 0.0 0.00 0.00 0.00 75 1014.5
20260504031604 62 183 0.0 0.0 0.00 0.00 0.00 74 1014.7
20260504030830 63 184 0.0 1.7 0.00 0.00 0.00 73 1014.5
20260504030013 63 183 0.0 0.9 0.00 0.00 0.00 73 1014.8
20260504025930 64 184 0.0 1.7 0.00 0.00 0.00 73 1014.5
20260504025030 64 184 0.9 1.7 0.00 0.00 0.00 72 1014.6
20260504024603 64 183 0.0 1.7 0.00 0.00 0.00 71 1014.8
20260504024129 65 184 0.0 1.7 0.00 0.00 0.00 70 1014.4
20260504023230 66 184 0.9 1.7 0.00 0.00 0.00 69 1014.3
20260504023103 65 183 0.9 1.7 0.00 0.00 0.00 69 1014.7
20260504022330 67 184 0.0 1.7 0.00 0.00 0.00 66 1014.4
20260504021602 67 183 0.0 1.7 0.00 0.00 0.00 66 1014.6
20260504020529 68 184 0.0 0.9 0.00 0.00 0.00 64 1014.2
20260504020004 68 183 0.0 0.9 0.00 0.00 0.00 63 1014.4
20260504015629 69 184 0.0 0.9 0.00 0.00 0.00 63 1014.0
20260504014730 70 0 0.0 0.0 0.00 0.00 0.00 61 1013.9
20260504014505 70 183 0.0 0.9 0.00 0.00 0.00 60 1014.2
20260504013829 71 184 0.0 0.9 0.00 0.00 0.00 59 1013.9
20260504013014 72 183 0.0 0.0 0.00 0.00 0.00 57 1014.2
20260504012029 73 184 0.0 0.9 0.00 0.00 0.00 56 1013.9
20260504011502 73 183 0.0 0.9 0.00 0.00 0.00 54 1014.1
20260504011130 74 184 0.0 1.7 0.00 0.00 0.00 53 1013.8
20260504010229 74 184 0.0 0.9 0.00 0.00 0.00 52 1013.7
20260504005329 75 184 0.0 1.7 0.00 0.00 0.00 52 1013.7
20260504004505 75 183 0.0 3.5 0.00 0.00 0.00 51 1013.9
20260504004430 75 186 0.9 3.5 0.00 0.00 0.00 51 1013.6
20260504003005 76 175 0.9 4.3 0.00 0.00 0.00 50 1014.0
20260504002630 76 184 0.9 2.6 0.00 0.00 0.00 50 1013.7
20260504001729 77 165 0.9 2.6 0.00 0.00 0.00 49 1013.7
20260504001503 76 182 0.9 4.3 0.00 0.00 0.00 49 1014.0
20260504000829 77 176 1.7 6.1 0.00 0.00 0.00 48 1013.7
20260504000002 77 159 1.7 6.1 0.00 0.00 0.00 48 1014.0
20260503235929 78 179 1.7 6.1 0.00 0.00 0.00 48 1013.7
20260503235029 78 174 2.6 7.0 0.00 0.00 0.00 46 1013.9
20260503234503 78 173 1.7 6.1 0.00 0.00 0.00 46 1014.2
20260503234129 79 175 3.5 7.0 0.00 0.00 0.00 46 1013.8
20260503233229 79 178 3.5 8.7 0.00 0.00 0.00 44 1013.9
20260503233006 79 213 4.3 8.7 0.00 0.00 0.00 44 1014.2
20260503232329 80 176 4.3 8.7 0.00 0.00 0.00 43 1013.8
20260503231505 80 167 3.5 9.6 0.00 0.00 0.00 44 1014.2
20260503231429 80 177 4.3 9.6 0.00 0.00 0.00 43 1013.9
20260503230529 81 181 3.5 8.7 0.00 0.00 0.00 44 1013.9
20260503230002 81 155 3.5 7.8 0.00 0.00 0.00 43 1014.2
20260503225629 81 183 3.5 7.8 0.00 0.00 0.00 43 1013.9
20260503224729 82 189 3.5 7.0 0.00 0.00 0.00 40 1014.0
20260503224504 82 150 3.5 7.0 0.00 0.00 0.00 41 1014.3
20260503223829 82 226 1.7 5.2 0.00 0.00 0.00 41 1014.1
20260503223006 81 120 0.0 5.2 0.00 0.00 0.00 43 1014.3
20260503222929 82 183 2.6 5.2 0.00 0.00 0.00 41 1014.1
20260503222029 81 190 3.5 10.4 0.00 0.00 0.00 42 1014.2
20260503221510 81 167 1.7 7.8 0.00 0.00 0.00 41 1014.5
20260503221129 82 184 3.5 7.8 0.00 0.00 0.00 41 1014.2
20260503220229 83 171 3.5 10.4 0.00 0.00 0.00 39 1014.2
20260503220104 83 121 4.3 10.4 0.00 0.00 0.00 38 1014.5
20260503215329 83 192 3.5 7.0 0.00 0.00 0.00 38 1014.2
20260503214508 82 215 2.6 8.7 0.00 0.00 0.00 45 1014.6
20260503214429 83 182 3.5 8.7 0.00 0.00 0.00 42 1014.3
20260503213529 83 167 4.3 10.4 0.00 0.00 0.00 43 1014.5
20260503213007 82 168 5.2 10.4 0.00 0.00 0.00 45 1014.8
20260503212629 82 179 4.3 7.8 0.00 0.00 0.00 42 1014.6
20260503211729 83 183 3.5 10.4 0.00 0.00 0.00 44 1014.7
20260503211607 83 172 2.6 11.3 0.00 0.00 0.00 41 1015.1
20260503210829 83 181 2.6 6.1 0.00 0.00 0.00 40 1014.9
20260503210106 83 198 1.7 8.7 0.00 0.00 0.00 42 1015.3
20260503205929 83 185 3.5 11.3 0.00 0.00 0.00 43 1015.0
20260503205029 83 177 3.5 11.3 0.00 0.00 0.00 40 1015.2
20260503204504 82 148 1.7 7.8 0.00 0.00 0.00 42 1015.7
20260503203229 83 191 3.5 7.8 0.00 0.00 0.00 43 1015.7
20260503203008 82 210 4.3 7.0 0.00 0.00 0.00 41 1016.1
20260503202329 83 192 3.5 10.4 0.00 0.00 0.00 41 1016.0
20260503201605 82 157 0.9 10.4 0.00 0.00 0.00 43 1016.4
20260503201429 83 184 4.3 7.8 0.00 0.00 0.00 44 1016.1
20260503200529 83 230 2.6 7.8 0.00 0.00 0.00 41 1016.2
20260503200107 83 51 1.7 7.8 0.00 0.00 0.00 43 1016.7
20260503195629 83 171 3.5 7.0 0.00 0.00 0.00 42 1016.4
20260503194729 82 224 2.6 9.6 0.00 0.00 0.00 45 1016.6
20260503194507 82 254 2.6 9.6 0.00 0.00 0.00 42 1016.9
20260503193829 82 200 3.5 9.6 0.00 0.00 0.00 42 1016.7
20260503193006 82 282 2.6 12.2 0.00 0.00 0.00 43 1017.1
20260503192029 82 175 3.5 13.0 0.00 0.00 0.00 44 1017.0
20260503191604 81 175 4.3 13.0 0.00 0.00 0.00 44 1017.3
20260503191129 82 192 2.6 7.8 0.00 0.00 0.00 45 1017.1
20260503190229 81 195 3.5 7.0 0.00 0.00 0.00 45 1017.3
20260503190111 81 360 3.5 7.0 0.00 0.00 0.00 44 1017.6